| time (UTC) | temp C | wind direction | speed KPH | gust KPH | rain 1hr cm | rain 24hr cm | rain mn cm | humidity % | barometer mb |
| 20260505130110 | 11 | 0 | 0.0 | 3.2 | 0.00 | 0.00 | 0.00 | 97 | 1015.3 |
| 20260505124619 | 11 | 0 | 0.0 | 1.6 | 0.00 | 0.00 | 0.00 | 97 | 1015.1 |
| 20260505124059 | 11 | 0 | 0.0 | 1.6 | 0.00 | 0.00 | 0.00 | 97 | 1015.1 |
| 20260505123556 | 11 | 0 | 0.0 | 1.6 | 0.00 | 0.00 | 0.00 | 97 | 1015.0 |
| 20260505123116 | 11 | 0 | 0.0 | 0.0 | 0.00 | 0.00 | 0.00 | 97 | 1014.9 |
| 20260505122556 | 11 | 0 | 0.0 | 1.6 | 0.00 | 0.00 | 0.00 | 96 | 1014.9 |
| 20260505122056 | 11 | 0 | 0.0 | 3.2 | 0.00 | 0.00 | 0.00 | 96 | 1014.9 |
| 20260505121556 | 11 | 0 | 0.0 | 3.2 | 0.00 | 0.00 | 0.00 | 96 | 1014.9 |
| 20260505121054 | 11 | 283 | 0.0 | 1.6 | 0.00 | 0.00 | 0.00 | 96 | 1014.8 |
| 20260505120554 | 11 | 0 | 0.0 | 0.0 | 0.00 | 0.00 | 0.00 | 96 | 1014.8 |
| 20260505120117 | 11 | 0 | 0.0 | 0.0 | 0.00 | 0.00 | 0.00 | 96 | 1014.7 |
| 20260505115553 | 11 | 0 | 0.0 | 3.2 | 0.00 | 0.00 | 0.00 | 96 | 1014.8 |
| 20260505115059 | 11 | 0 | 0.0 | 3.2 | 0.00 | 0.00 | 0.00 | 96 | 1014.8 |
| 20260505114555 | 11 | 0 | 0.0 | 3.2 | 0.00 | 0.00 | 0.00 | 96 | 1014.7 |
| 20260505114100 | 11 | 0 | 0.0 | 3.2 | 0.00 | 0.00 | 0.00 | 95 | 1014.7 |
| 20260505113556 | 11 | 0 | 0.0 | 1.6 | 0.00 | 0.00 | 0.00 | 95 | 1014.7 |
| 20260505113055 | 11 | 0 | 0.0 | 1.6 | 0.00 | 0.00 | 0.00 | 95 | 1014.9 |
| 20260505112557 | 11 | 0 | 0.0 | 1.6 | 0.00 | 0.00 | 0.00 | 95 | 1014.8 |
| 20260505112057 | 11 | 0 | 0.0 | 1.6 | 0.00 | 0.00 | 0.00 | 95 | 1014.9 |
| 20260505111556 | 11 | 0 | 0.0 | 1.6 | 0.00 | 0.00 | 0.00 | 94 | 1014.9 |
| 20260505111055 | 11 | 0 | 0.0 | 1.6 | 0.00 | 0.00 | 0.00 | 94 | 1014.8 |
| 20260505110556 | 11 | 0 | 0.0 | 1.6 | 0.00 | 0.00 | 0.00 | 93 | 1014.7 |
| 20260505102056 | 11 | 351 | 0.0 | 4.8 | 0.00 | 0.00 | 0.00 | 92 | 1014.6 |
| 20260505101557 | 11 | 360 | 0.0 | 3.2 | 0.00 | 0.00 | 0.00 | 92 | 1014.6 |
| 20260505101057 | 11 | 0 | 0.0 | 4.8 | 0.00 | 0.00 | 0.00 | 92 | 1014.5 |
| 20260505100557 | 11 | 351 | 0.0 | 4.8 | 0.00 | 0.00 | 0.00 | 91 | 1014.4 |
| 20260505100100 | 11 | 0 | 1.6 | 4.8 | 0.00 | 0.00 | 0.00 | 91 | 1014.4 |
| 20260505095558 | 11 | 0 | 0.0 | 3.2 | 0.00 | 0.00 | 0.00 | 91 | 1014.5 |
| 20260505095057 | 11 | 0 | 0.0 | 3.2 | 0.00 | 0.00 | 0.00 | 91 | 1014.4 |
| 20260505094559 | 11 | 345 | 0.0 | 1.6 | 0.00 | 0.00 | 0.00 | 91 | 1014.4 |
| 20260505094058 | 11 | 0 | 0.0 | 3.2 | 0.00 | 0.00 | 0.00 | 91 | 1014.3 |
| 20260505093558 | 11 | 0 | 0.0 | 3.2 | 0.00 | 0.00 | 0.00 | 91 | 1014.3 |
| 20260505093108 | 11 | 0 | 0.0 | 4.8 | 0.00 | 0.00 | 0.00 | 91 | 1014.2 |
| 20260505092558 | 11 | 0 | 0.0 | 4.8 | 0.00 | 0.00 | 0.00 | 91 | 1014.2 |
| 20260505092058 | 11 | 0 | 1.6 | 4.8 | 0.00 | 0.00 | 0.00 | 90 | 1014.1 |
| 20260505091606 | 11 | 5 | 0.0 | 3.2 | 0.00 | 0.00 | 0.00 | 90 | 1014.1 |
| 20260505091059 | 11 | 5 | 0.0 | 3.2 | 0.00 | 0.00 | 0.00 | 90 | 1014.1 |
| 20260505090557 | 11 | 0 | 0.0 | 4.8 | 0.00 | 0.00 | 0.00 | 90 | 1014.1 |
| 20260505085557 | 11 | 26 | 0.0 | 4.8 | 0.00 | 0.00 | 0.00 | 91 | 1014.0 |
| 20260505085057 | 11 | 0 | 0.0 | 0.0 | 0.00 | 0.00 | 0.00 | 91 | 1014.0 |
| 20260505084557 | 11 | 0 | 0.0 | 1.6 | 0.00 | 0.00 | 0.00 | 91 | 1014.0 |
| 20260505084059 | 11 | 0 | 0.0 | 3.2 | 0.00 | 0.00 | 0.00 | 91 | 1014.0 |
| 20260505083558 | 11 | 0 | 0.0 | 3.2 | 0.00 | 0.00 | 0.00 | 91 | 1014.0 |
| 20260505083100 | 11 | 0 | 0.0 | 3.2 | 0.00 | 0.00 | 0.00 | 91 | 1013.9 |
| 20260505082557 | 11 | 5 | 0.0 | 3.2 | 0.00 | 0.00 | 0.00 | 91 | 1013.9 |
| 20260505082058 | 11 | 0 | 0.0 | 3.2 | 0.00 | 0.00 | 0.00 | 91 | 1013.8 |
| 20260505081605 | 11 | 0 | 0.0 | 3.2 | 0.00 | 0.00 | 0.00 | 91 | 1013.8 |
| 20260505081057 | 11 | 0 | 0.0 | 0.0 | 0.00 | 0.00 | 0.00 | 91 | 1013.8 |
| 20260505080555 | 11 | 0 | 0.0 | 0.0 | 0.00 | 0.00 | 0.00 | 91 | 1013.9 |
| 20260505080057 | 11 | 0 | 0.0 | 0.0 | 0.00 | 0.00 | 0.00 | 91 | 1013.8 |
| 20260505075553 | 11 | 0 | 0.0 | 0.0 | 0.00 | 0.00 | 0.00 | 91 | 1013.8 |
| 20260505075053 | 11 | 0 | 0.0 | 0.0 | 0.00 | 0.00 | 0.00 | 91 | 1013.8 |
| 20260505074600 | 11 | 0 | 0.0 | 0.0 | 0.00 | 0.00 | 0.00 | 90 | 1013.8 |
| 20260505074057 | 11 | 0 | 0.0 | 1.6 | 0.00 | 0.00 | 0.00 | 90 | 1013.6 |
| 20260505073556 | 11 | 0 | 0.0 | 4.8 | 0.00 | 0.00 | 0.00 | 90 | 1013.6 |
| 20260505073105 | 11 | 0 | 0.0 | 4.8 | 0.00 | 0.00 | 0.00 | 90 | 1013.5 |
| 20260505072557 | 11 | 315 | 0.0 | 3.2 | 0.00 | 0.00 | 0.00 | 89 | 1013.4 |
| 20260505072057 | 11 | 315 | 0.0 | 6.4 | 0.00 | 0.00 | 0.00 | 89 | 1013.5 |
| 20260505071601 | 11 | 296 | 1.6 | 6.4 | 0.00 | 0.00 | 0.00 | 89 | 1013.4 |
| 20260505071057 | 11 | 320 | 1.6 | 4.8 | 0.00 | 0.00 | 0.00 | 89 | 1013.3 |
| 20260505070559 | 11 | 331 | 0.0 | 3.2 | 0.00 | 0.00 | 0.00 | 89 | 1013.3 |
| 20260505070058 | 11 | 331 | 0.0 | 3.2 | 0.00 | 0.00 | 0.00 | 88 | 1013.2 |
| 20260505065557 | 12 | 331 | 0.0 | 3.2 | 0.00 | 0.00 | 0.00 | 87 | 1013.3 |
| 20260505065054 | 12 | 0 | 0.0 | 8.0 | 0.00 | 0.00 | 0.00 | 87 | 1013.3 |
| 20260505064554 | 12 | 0 | 1.6 | 8.0 | 0.00 | 0.00 | 0.00 | 87 | 1013.1 |
| 20260505064054 | 12 | 0 | 1.6 | 6.4 | 0.00 | 0.00 | 0.00 | 87 | 1013.1 |
| 20260505063556 | 12 | 314 | 0.0 | 8.0 | 0.00 | 0.00 | 0.00 | 86 | 1013.1 |
| 20260505063056 | 12 | 315 | 1.6 | 8.0 | 0.00 | 0.00 | 0.00 | 86 | 1013.1 |
| 20260505062557 | 12 | 310 | 4.8 | 8.0 | 0.00 | 0.00 | 0.00 | 86 | 1013.0 |
| 20260505062057 | 12 | 324 | 1.6 | 6.4 | 0.00 | 0.00 | 0.00 | 86 | 1012.9 |
| 20260505061559 | 12 | 324 | 1.6 | 4.8 | 0.00 | 0.00 | 0.00 | 85 | 1012.9 |
| 20260505061054 | 12 | 0 | 1.6 | 4.8 | 0.00 | 0.00 | 0.00 | 85 | 1012.8 |
| 20260505060557 | 13 | 0 | 0.0 | 1.6 | 0.00 | 0.00 | 0.00 | 84 | 1012.8 |
| 20260505055557 | 13 | 0 | 0.0 | 3.2 | 0.00 | 0.00 | 0.00 | 83 | 1012.7 |
| 20260505055057 | 13 | 333 | 0.0 | 3.2 | 0.00 | 0.00 | 0.00 | 82 | 1012.6 |
| 20260505054625 | 13 | 0 | 0.0 | 3.2 | 0.00 | 0.00 | 0.00 | 82 | 1012.5 |
| 20260505054053 | 13 | 0 | 0.0 | 3.2 | 0.00 | 0.00 | 0.00 | 82 | 1012.5 |
| 20260505053556 | 13 | 0 | 0.0 | 1.6 | 0.00 | 0.00 | 0.00 | 81 | 1012.6 |
| 20260505053108 | 13 | 0 | 0.0 | 3.2 | 0.00 | 0.00 | 0.00 | 81 | 1012.5 |
| 20260505052556 | 14 | 0 | 0.0 | 4.8 | 0.00 | 0.00 | 0.00 | 80 | 1012.5 |
| 20260505052054 | 14 | 0 | 0.0 | 4.8 | 0.00 | 0.00 | 0.00 | 80 | 1012.4 |
| 20260505051556 | 14 | 0 | 1.6 | 4.8 | 0.00 | 0.00 | 0.00 | 79 | 1012.3 |
| 20260505051054 | 14 | 324 | 1.6 | 4.8 | 0.00 | 0.00 | 0.00 | 79 | 1012.3 |
| 20260505050558 | 14 | 0 | 0.0 | 3.2 | 0.00 | 0.00 | 0.00 | 77 | 1012.3 |
| 20260505050105 | 15 | 0 | 0.0 | 3.2 | 0.00 | 0.00 | 0.00 | 77 | 1012.2 |
| 20260505041601 | 16 | 342 | 0.0 | 8.0 | 0.00 | 0.00 | 0.00 | 69 | 1011.8 |
| 20260505041057 | 16 | 0 | 1.6 | 8.0 | 0.00 | 0.00 | 0.00 | 69 | 1011.7 |
| 20260505040557 | 16 | 336 | 1.6 | 6.4 | 0.00 | 0.00 | 0.00 | 68 | 1011.7 |
| 20260505035557 | 17 | 321 | 1.6 | 6.4 | 0.00 | 0.00 | 0.00 | 65 | 1011.6 |
| 20260505035058 | 17 | 0 | 0.0 | 4.8 | 0.00 | 0.00 | 0.00 | 63 | 1011.5 |
| 20260505034558 | 17 | 283 | 1.6 | 8.0 | 0.00 | 0.00 | 0.00 | 62 | 1011.4 |
| 20260505034057 | 18 | 284 | 1.6 | 11.3 | 0.00 | 0.00 | 0.00 | 60 | 1011.3 |
| 20260505033558 | 18 | 313 | 4.8 | 11.3 | 0.00 | 0.00 | 0.00 | 56 | 1011.3 |
| 20260505033057 | 18 | 331 | 4.8 | 9.7 | 0.00 | 0.00 | 0.00 | 56 | 1011.1 |
| 20260505032556 | 18 | 320 | 1.6 | 14.5 | 0.00 | 0.00 | 0.00 | 56 | 1011.1 |
| 20260505032056 | 19 | 320 | 4.8 | 14.5 | 0.00 | 0.00 | 0.00 | 56 | 1011.0 |
| 20260505031610 | 19 | 336 | 6.4 | 16.1 | 0.00 | 0.00 | 0.00 | 55 | 1010.9 |
| 20260505031057 | 20 | 290 | 6.4 | 16.1 | 0.00 | 0.00 | 0.00 | 55 | 1010.8 |
| 20260505030558 | 20 | 286 | 4.8 | 17.7 | 0.00 | 0.00 | 0.00 | 54 | 1010.8 |
| 20260505030059 | 20 | 311 | 8.0 | 17.7 | 0.00 | 0.00 | 0.00 | 53 | 1010.7 |
| 20260505025558 | 20 | 290 | 8.0 | 17.7 | 0.00 | 0.00 | 0.00 | 52 | 1010.7 |
| 20260505025057 | 20 | 360 | 11.3 | 17.7 | 0.00 | 0.00 | 0.00 | 52 | 1010.6 |
| 20260505024601 | 20 | 321 | 9.7 | 16.1 | 0.00 | 0.00 | 0.00 | 51 | 1010.6 |
| 20260505024101 | 21 | 295 | 9.7 | 16.1 | 0.00 | 0.00 | 0.00 | 50 | 1010.4 |
| 20260505023558 | 21 | 296 | 9.7 | 16.1 | 0.00 | 0.00 | 0.00 | 49 | 1010.4 |
| 20260505023121 | 21 | 296 | 9.7 | 17.7 | 0.00 | 0.00 | 0.00 | 48 | 1010.3 |
| 20260505022557 | 21 | 308 | 8.0 | 17.7 | 0.00 | 0.00 | 0.00 | 47 | 1010.3 |
| 20260505022057 | 21 | 316 | 8.0 | 17.7 | 0.00 | 0.00 | 0.00 | 46 | 1010.4 |
| 20260505021600 | 21 | 288 | 6.4 | 19.3 | 0.00 | 0.00 | 0.00 | 45 | 1010.3 |
| 20260505021056 | 21 | 288 | 11.3 | 20.9 | 0.00 | 0.00 | 0.00 | 44 | 1010.3 |
| 20260505020557 | 22 | 324 | 8.0 | 20.9 | 0.00 | 0.00 | 0.00 | 43 | 1010.3 |
| 20260505020057 | 22 | 318 | 11.3 | 25.7 | 0.00 | 0.00 | 0.00 | 42 | 1010.3 |
| 20260505015557 | 22 | 300 | 16.1 | 25.7 | 0.00 | 0.00 | 0.00 | 40 | 1010.3 |
| 20260505015058 | 22 | 336 | 12.9 | 27.4 | 0.00 | 0.00 | 0.00 | 39 | 1010.3 |
| 20260505014605 | 22 | 279 | 11.3 | 27.4 | 0.00 | 0.00 | 0.00 | 38 | 1010.3 |
| 20260505014057 | 23 | 290 | 12.9 | 24.1 | 0.00 | 0.00 | 0.00 | 36 | 1010.3 |
| 20260505013556 | 23 | 268 | 9.7 | 24.1 | 0.00 | 0.00 | 0.00 | 44 | 1010.4 |
| 20260505013109 | 23 | 268 | 12.9 | 22.5 | 0.00 | 0.00 | 0.00 | 45 | 1010.3 |
| 20260505012556 | 23 | 300 | 9.7 | 24.1 | 0.00 | 0.00 | 0.00 | 47 | 1010.3 |
| 20260505012056 | 23 | 288 | 12.9 | 24.1 | 0.00 | 0.00 | 0.00 | 48 | 1010.3 |
| 20260505011554 | 23 | 336 | 11.3 | 24.1 | 0.00 | 0.00 | 0.00 | 48 | 1010.3 |
| 20260505011057 | 23 | 329 | 12.9 | 24.1 | 0.00 | 0.00 | 0.00 | 49 | 1010.3 |
| 20260505010554 | 24 | 317 | 12.9 | 24.1 | 0.00 | 0.00 | 0.00 | 48 | 1010.3 |
| 20260505010100 | 24 | 311 | 12.9 | 22.5 | 0.00 | 0.00 | 0.00 | 48 | 1010.3 |
| 20260505005557 | 25 | 302 | 9.7 | 20.9 | 0.00 | 0.00 | 0.00 | 48 | 1010.2 |
| 20260505005058 | 25 | 275 | 6.4 | 24.1 | 0.00 | 0.00 | 0.00 | 49 | 1010.2 |
| 20260505004558 | 25 | 285 | 12.9 | 29.0 | 0.00 | 0.00 | 0.00 | 49 | 1010.2 |
| 20260505004058 | 25 | 289 | 6.4 | 29.0 | 0.00 | 0.00 | 0.00 | 50 | 1010.1 |
| 20260505003557 | 25 | 300 | 14.5 | 25.7 | 0.00 | 0.00 | 0.00 | 48 | 1010.1 |
| 20260505003055 | 25 | 286 | 6.4 | 16.1 | 0.00 | 0.00 | 0.00 | 48 | 1010.1 |
| 20260505002557 | 25 | 311 | 4.8 | 22.5 | 0.00 | 0.00 | 0.00 | 48 | 1010.0 |
| 20260505002057 | 25 | 275 | 8.0 | 22.5 | 0.00 | 0.00 | 0.00 | 47 | 1010.0 |
| 20260505001556 | 25 | 302 | 8.0 | 22.5 | 0.00 | 0.00 | 0.00 | 45 | 1010.0 |
| 20260505001054 | 25 | 294 | 11.3 | 20.9 | 0.00 | 0.00 | 0.00 | 43 | 1009.9 |
| 20260505000553 | 26 | 307 | 4.8 | 16.1 | 0.00 | 0.00 | 0.00 | 46 | 1009.9 |
| 20260505000115 | 26 | 252 | 6.4 | 16.1 | 0.00 | 0.00 | 0.00 | 46 | 1009.9 |
| 20260504235556 | 25 | 329 | 4.8 | 20.9 | 0.00 | 0.00 | 0.00 | 46 | 1009.9 |
| 20260504235054 | 25 | 306 | 12.9 | 20.9 | 0.00 | 0.00 | 0.00 | 45 | 1010.0 |
| 20260504234555 | 26 | 277 | 6.4 | 17.7 | 0.00 | 0.00 | 0.00 | 45 | 1010.0 |
| 20260504234057 | 25 | 272 | 6.4 | 17.7 | 0.00 | 0.00 | 0.00 | 49 | 1009.9 |
| 20260504233557 | 25 | 298 | 9.7 | 17.7 | 0.00 | 0.00 | 0.00 | 48 | 1009.9 |
| 20260504233057 | 25 | 321 | 9.7 | 17.7 | 0.00 | 0.00 | 0.00 | 50 | 1010.0 |
| 20260504232557 | 25 | 318 | 11.3 | 19.3 | 0.00 | 0.00 | 0.00 | 50 | 1010.0 |
| 20260504232058 | 25 | 257 | 6.4 | 19.3 | 0.00 | 0.00 | 0.00 | 52 | 1010.0 |
| 20260504231557 | 25 | 239 | 6.4 | 19.3 | 0.00 | 0.00 | 0.00 | 52 | 1010.1 |
| 20260504231053 | 25 | 265 | 9.7 | 19.3 | 0.00 | 0.00 | 0.00 | 53 | 1010.1 |
| 20260504230555 | 25 | 266 | 8.0 | 19.3 | 0.00 | 0.00 | 0.00 | 52 | 1010.3 |
| 20260504230106 | 25 | 294 | 6.4 | 19.3 | 0.00 | 0.00 | 0.00 | 52 | 1010.3 |
| 20260504225557 | 25 | 324 | 9.7 | 19.3 | 0.00 | 0.00 | 0.00 | 51 | 1010.6 |
| 20260504225056 | 25 | 266 | 8.0 | 17.7 | 0.00 | 0.00 | 0.00 | 54 | 1010.5 |
| 20260504224556 | 25 | 262 | 4.8 | 20.9 | 0.00 | 0.00 | 0.00 | 52 | 1010.5 |
| 20260504224057 | 24 | 312 | 8.0 | 20.9 | 0.00 | 0.00 | 0.00 | 52 | 1010.6 |
| 20260504223554 | 24 | 293 | 8.0 | 19.3 | 0.00 | 0.00 | 0.00 | 52 | 1010.6 |
| 20260504223105 | 24 | 315 | 8.0 | 22.5 | 0.00 | 0.00 | 0.00 | 51 | 1010.6 |
| 20260504222554 | 24 | 326 | 12.9 | 22.5 | 0.00 | 0.00 | 0.00 | 50 | 1010.6 |
| 20260504222058 | 25 | 315 | 4.8 | 22.5 | 0.00 | 0.00 | 0.00 | 50 | 1010.7 |
| 20260504221604 | 25 | 306 | 6.4 | 22.5 | 0.00 | 0.00 | 0.00 | 51 | 1010.7 |
| 20260504221057 | 25 | 305 | 8.0 | 22.5 | 0.00 | 0.00 | 0.00 | 51 | 1010.8 |
| 20260504220557 | 25 | 278 | 6.4 | 16.1 | 0.00 | 0.00 | 0.00 | 51 | 1010.8 |
| 20260504220101 | 25 | 290 | 3.2 | 16.1 | 0.00 | 0.00 | 0.00 | 52 | 1010.9 |
| 20260504215559 | 24 | 275 | 6.4 | 16.1 | 0.00 | 0.00 | 0.00 | 51 | 1011.0 |
| 20260504215057 | 24 | 252 | 3.2 | 14.5 | 0.00 | 0.00 | 0.00 | 52 | 1011.0 |
| 20260504214600 | 24 | 219 | 6.4 | 14.5 | 0.00 | 0.00 | 0.00 | 52 | 1011.0 |
| 20260504214053 | 24 | 323 | 4.8 | 17.7 | 0.00 | 0.00 | 0.00 | 52 | 1011.1 |
| 20260504213557 | 23 | 248 | 8.0 | 17.7 | 0.00 | 0.00 | 0.00 | 53 | 1011.2 |
| 20260504213106 | 23 | 281 | 6.4 | 19.3 | 0.00 | 0.00 | 0.00 | 53 | 1011.2 |
| 20260504212553 | 23 | 246 | 3.2 | 19.3 | 0.00 | 0.00 | 0.00 | 53 | 1011.2 |
| 20260504212100 | 23 | 250 | 4.8 | 17.7 | 0.00 | 0.00 | 0.00 | 53 | 1011.3 |
| 20260504211605 | 23 | 293 | 8.0 | 19.3 | 0.00 | 0.00 | 0.00 | 54 | 1011.3 |
| 20260504211057 | 23 | 323 | 9.7 | 19.3 | 0.00 | 0.00 | 0.00 | 52 | 1011.4 |
| 20260504210557 | 23 | 316 | 3.2 | 14.5 | 0.00 | 0.00 | 0.00 | 54 | 1011.4 |
| 20260504210057 | 23 | 311 | 4.8 | 16.1 | 0.00 | 0.00 | 0.00 | 54 | 1011.4 |
| 20260504205557 | 22 | 292 | 4.8 | 17.7 | 0.00 | 0.00 | 0.00 | 53 | 1011.4 |
| 20260504205057 | 22 | 341 | 6.4 | 19.3 | 0.00 | 0.00 | 0.00 | 52 | 1011.4 |
| 20260504204602 | 22 | 326 | 9.7 | 19.3 | 0.00 | 0.00 | 0.00 | 53 | 1011.5 |
| 20260504204056 | 22 | 313 | 8.0 | 19.3 | 0.00 | 0.00 | 0.00 | 54 | 1011.6 |
| 20260504203600 | 22 | 317 | 9.7 | 19.3 | 0.00 | 0.00 | 0.00 | 55 | 1011.7 |
| 20260504203109 | 22 | 317 | 4.8 | 16.1 | 0.00 | 0.00 | 0.00 | 55 | 1011.7 |
| 20260504202557 | 22 | 47 | 6.4 | 17.7 | 0.00 | 0.00 | 0.00 | 55 | 1011.7 |
| 20260504202054 | 22 | 334 | 8.0 | 17.7 | 0.00 | 0.00 | 0.00 | 56 | 1011.7 |
| 20260504201559 | 22 | 218 | 3.2 | 12.9 | 0.00 | 0.00 | 0.00 | 58 | 1011.7 |
| 20260504201057 | 22 | 313 | 6.4 | 14.5 | 0.00 | 0.00 | 0.00 | 56 | 1011.7 |
| 20260504200553 | 22 | 293 | 8.0 | 14.5 | 0.00 | 0.00 | 0.00 | 56 | 1011.8 |
| 20260504200057 | 22 | 360 | 6.4 | 17.7 | 0.00 | 0.00 | 0.00 | 57 | 1011.9 |
| 20260504195555 | 21 | 308 | 3.2 | 17.7 | 0.00 | 0.00 | 0.00 | 58 | 1011.9 |
| 20260504195057 | 21 | 290 | 6.4 | 19.3 | 0.00 | 0.00 | 0.00 | 60 | 1012.0 |
| 20260504194555 | 21 | 313 | 4.8 | 19.3 | 0.00 | 0.00 | 0.00 | 59 | 1012.0 |
| 20260504194057 | 21 | 298 | 9.7 | 19.3 | 0.00 | 0.00 | 0.00 | 61 | 1012.0 |
| 20260504193554 | 21 | 315 | 6.4 | 16.1 | 0.00 | 0.00 | 0.00 | 61 | 1012.0 |
| 20260504193056 | 21 | 306 | 8.0 | 16.1 | 0.00 | 0.00 | 0.00 | 63 | 1012.1 |
| 20260504192556 | 20 | 303 | 8.0 | 16.1 | 0.00 | 0.00 | 0.00 | 61 | 1012.2 |
| 20260504192057 | 20 | 289 | 8.0 | 16.1 | 0.00 | 0.00 | 0.00 | 64 | 1012.2 |
| 20260504191605 | 20 | 292 | 6.4 | 16.1 | 0.00 | 0.00 | 0.00 | 64 | 1012.2 |
| 20260504191054 | 20 | 5 | 4.8 | 16.1 | 0.00 | 0.00 | 0.00 | 66 | 1012.3 |
| 20260504190557 | 20 | 309 | 8.0 | 16.1 | 0.00 | 0.00 | 0.00 | 67 | 1012.2 |
| 20260504190117 | 20 | 293 | 8.0 | 17.7 | 0.00 | 0.00 | 0.00 | 67 | 1012.3 |
| 20260504185554 | 20 | 275 | 6.4 | 17.7 | 0.00 | 0.00 | 0.00 | 66 | 1012.3 |
| 20260504185053 | 20 | 310 | 6.4 | 14.5 | 0.00 | 0.00 | 0.00 | 69 | 1012.4 |
| 20260504184558 | 20 | 301 | 6.4 | 16.1 | 0.00 | 0.00 | 0.00 | 67 | 1012.4 |
| 20260504184053 | 20 | 281 | 6.4 | 16.1 | 0.00 | 0.00 | 0.00 | 68 | 1012.4 |
| 20260504183557 | 19 | 0 | 8.0 | 17.7 | 0.00 | 0.00 | 0.00 | 68 | 1012.5 |
| 20260504183102 | 18 | 16 | 8.0 | 17.7 | 0.00 | 0.00 | 0.00 | 71 | 1012.5 |
| 20260504182557 | 18 | 295 | 9.7 | 16.1 | 0.00 | 0.00 | 0.00 | 69 | 1012.5 |
| 20260504182101 | 18 | 302 | 6.4 | 14.5 | 0.00 | 0.00 | 0.00 | 69 | 1012.5 |
| 20260504181600 | 18 | 294 | 6.4 | 17.7 | 0.00 | 0.00 | 0.00 | 69 | 1012.5 |
| 20260504181057 | 18 | 296 | 6.4 | 17.7 | 0.00 | 0.00 | 0.00 | 71 | 1012.5 |
| 20260504180557 | 18 | 277 | 9.7 | 17.7 | 0.00 | 0.00 | 0.00 | 71 | 1012.4 |
| 20260504180111 | 18 | 296 | 8.0 | 17.7 | 0.00 | 0.00 | 0.00 | 71 | 1012.5 |
| 20260504175559 | 18 | 281 | 9.7 | 17.7 | 0.00 | 0.00 | 0.00 | 71 | 1012.5 |
| 20260504175055 | 18 | 290 | 4.8 | 16.1 | 0.00 | 0.00 | 0.00 | 71 | 1012.6 |
| 20260504174557 | 18 | 311 | 6.4 | 14.5 | 0.00 | 0.00 | 0.00 | 71 | 1012.5 |
| 20260504174057 | 18 | 275 | 6.4 | 14.5 | 0.00 | 0.00 | 0.00 | 71 | 1012.5 |
| 20260504173554 | 18 | 295 | 6.4 | 16.1 | 0.00 | 0.00 | 0.00 | 70 | 1012.5 |
| 20260504173055 | 17 | 299 | 4.8 | 16.1 | 0.00 | 0.00 | 0.00 | 71 | 1012.5 |
| 20260504172553 | 17 | 265 | 4.8 | 14.5 | 0.00 | 0.00 | 0.00 | 71 | 1012.5 |
| 20260504172054 | 17 | 296 | 6.4 | 14.5 | 0.00 | 0.00 | 0.00 | 70 | 1012.4 |
| 20260504171558 | 17 | 309 | 8.0 | 14.5 | 0.00 | 0.00 | 0.00 | 68 | 1012.4 |
| 20260504171059 | 17 | 301 | 6.4 | 14.5 | 0.00 | 0.00 | 0.00 | 69 | 1012.4 |
| 20260504170557 | 17 | 267 | 6.4 | 16.1 | 0.00 | 0.00 | 0.00 | 70 | 1012.5 |
| 20260504160104 | 17 | 20 | 0.0 | 3.2 | 0.00 | 0.00 | 0.00 | 72 | 1012.1 |
| 20260504151055 | 13 | 340 | 0.0 | 4.8 | 0.00 | 0.00 | 0.00 | 85 | 1012.0 |
| 20260504150554 | 13 | 0 | 1.6 | 4.8 | 0.00 | 0.00 | 0.00 | 87 | 1012.0 |
| 20260504141056 | 10 | 0 | 0.0 | 0.0 | 0.00 | 0.00 | 0.00 | 91 | 1011.1 |
| 20260504140555 | 10 | 0 | 0.0 | 0.0 | 0.00 | 0.00 | 0.00 | 91 | 1011.1 |
| 20260504140104 | 10 | 0 | 0.0 | 0.0 | 0.00 | 0.00 | 0.00 | 91 | 1011.1 |